Погода в Дугине

Россия / Смоленская область     55°41′18″N   34°11′30″E
темп.,
°C
ветер,
м/с
пор.,
м/с
влажн.,
%
обл.,
%
осадки,
мм/ч
давл.,
гПа
погр.,
м
28 сентября, вт
вт2800:00+8ссв4991100 0.1 1027457
03:00+8ссв499294 0.1 1027506
06:00+7ссв4891100 0.1 1028485
09:00+7всв5889100 0.3 1029666
12:00+8всв5769100 0.1 1031990
15:00+10всв456472 0.1 10321062
18:00+8всв3566100 0.0 1033265
21:00+5вюв227816 0.0 103422
29 сентября, ср
ср2900:00+3юв22895 0.0 103612
03:00+2ссв11895 0.0 103610
06:00+2с229161 0.0 103710
09:00+5св228050 0.0 1037191
12:00+10св225948 0.0 1037699
15:00+11св225070 0.0 1035961
18:00+8с2265100 0.0 103511
21:00+6всв2274100 0.0 103610
30 сентября, чт
чт3000:00+5всв117899 0.0 103610
03:00+4ссв11846 0.0 103610
06:00+3св11865 0.0 103610
09:00+6в12745 0.0 1037155
12:00+11юв23645 0.0 1036770
15:00+12юв236191 0.0 10351110
18:00+10юв236999 0.0 103557
21:00+9ююв237086 0.0 103556
1 октября, пт
пт100:00+8ююв237370 0.0 103547
03:00+8ююв237596 0.0 103549
06:00+8ююз2276100 0.0 103556
09:00+9ююз34760 0.0 1035263
12:00+12ююз44614 0.0 1035952
15:00+13юз34567 0.0 10341152
18:00+10ююз33727 0.0 103328
21:00+7ююз34836 0.0 103445
2 октября, сб
сб200:00+6ююз348853 0.0 103451
03:00+5ююз349144 0.0 103456
06:00+4ююз359259 0.0 103370
09:00+7ююз377539 0.0 1033232
12:00+12ююз5657100 0.0 1032734
15:00+13ююз565173 0.0 10311116
18:00+10ю357064 0.0 103075
21:00+7ю49810 0.0 1030167